Lid_Strength_Index
2 5 7 6 12 14 16 13 11 11 12 11 9 10 9 6 8 10 4 3 1 1 0 -0 -1 -1 -1 -1 -1 -1 -1 -1 -1 -1 -1 -1 -1 -1 -1 -2 -2 -2 -2 -2 -2 -2 -2 -2 -2
3 5 8 10 14 17 16 12 12 10 10 9 10 9 9 8 5 4 4 1 1 0 0 0 -0 -0 -1 -1 -1 -1 -1 -1 -1 -1 -1 -1 -1 -1 -1 -2 -2 -2 -2 -2 -2 -2 -2 -1 -1
1 4 11 12 15 16 15 12 11 9 9 10 10 8 8 6 4 4 2 1 0 1 0 0 -1 -0 -1 -1 -1 -1 -1 -1 -1 -1 -1 -1 -1 -1 -2 -2 -2 -2 -2 -2 -2 -2 -2 -1 -1
6 6 9 14 14 12 12 10 10 9 8 9 9 9 5 3 3 2 1 1 1 1 0 -0 -0 -0 -1 -1 -1 -1 -1 -1 -1 -1 -1 -1 -1 -1 -1 -2 -2 -2 -2 -2 -2 -2 -1 -1 -1
4 8 12 15 13 11 10 9 9 9 10 9 9 10 6 3 2 2 2 1 1 1 0 0 -0 -1 -1 -1 -1 -1 -1 -1 -1 -1 -1 -1 -1 -1 -1 -2 -2 -2 -2 -2 -2 -2 -2 -2 -1
7 9 15 15 12 10 9 8 8 9 9 8 10 9 6 3 3 2 1 1 1 1 0 0 -0 -0 -0 -1 -1 -1 -1 -1 -1 -1 -1 -1 -1 -1 -1 -2 -2 -2 -2 -2 -2 -2 -2 -2 -1
9 11 13 14 11 11 9 7 7 8 9 10 8 9 6 4 2 2 3 2 1 1 1 0 0 -0 -1 -0 -0 -0 -0 -0 -0 -0 -0 -1 -1 -1 -1 -1 -2 -2 -2 -2 -2 -2 -2 -1 -1
8 9 13 12 12 10 7 6 7 8 8 6 8 9 7 4 2 2 3 3 1 1 1 1 0 0 0 0 -1 -1 -0 -0 -0 -0 -1 -1 -1 -1 -1 -1 -1 -2 -2 -2 -1 -2 -2 -1 -1
8 14 13 11 10 9 6 8 5 5 6 6 7 7 4 2 2 2 3 3 2 2 1 1 1 0 0 0 -0 -0 -1 -1 -1 -1 -1 -0 0 0 -0 -1 -1 -2 -2 -1 -1 -1 -1 -1 -1
10 14 13 8 7 8 7 7 6 6 7 7 7 6 6 3 3 4 4 4 3 3 2 1 1 1 0 0 0 0 0 0 0 0 0 0 1 1 -0 -1 -1 -1 -1 -1 -1 -1 -1 -1 0
12 13 10 9 8 8 8 8 6 8 9 7 7 7 6 5 5 5 4 3 3 2 2 1 1 0 0 1 0 0 0 0 0 0 0 0 0 0 0 0 0 1 -1 0 -0 0 0 0 0
14 12 11 10 9 9 10 8 8 8 8 6 6 6 6 7 7 7 6 4 3 2 2 1 1 1 0 0 0 0 0 0 0 0 0 0 0 0 0 0 0 0 1 0 0 0 1 0 0
14 12 11 11 11 11 9 10 9 9 7 6 5 5 6 6 6 6 4 4 2 3 2 1 1 1 1 1 0 0 0 0 0 0 0 0 0 1 0 0 0 0 1 0 0 1 0 0 0
12 12 12 12 12 11 11 11 10 10 8 7 7 7 6 6 6 5 3 4 4 2 2 1 1 1 1 1 1 1 0 0 0 0 0 -0 0 0 1 2 1 1 1 2 2 1 1 1 0
11 13 12 11 11 11 10 12 12 9 8 8 8 7 7 6 5 4 4 3 3 3 2 2 1 1 1 2 2 1 1 1 0 0 0 0 0 1 2 2 3 2 3 3 3 3 2 2 1
13 14 16 12 10 10 10 14 10 10 10 10 9 8 8 7 6 5 4 3 3 3 2 2 1 1 2 1 1 1 0 1 1 2 1 0 1 2 3 3 4 4 4 4 3 4 4 3 2
15 17 16 13 10 11 11 14 11 9 10 11 11 10 9 9 8 6 4 3 4 3 3 2 2 2 2 2 1 1 1 1 1 0 1 0 1 1 2 3 3 4 4 4 4 4 4 4 3
16 16 15 15 12 11 12 13 11 9 9 10 12 11 11 10 9 8 6 3 4 3 3 3 2 2 2 1 1 1 1 1 1 1 0 0 1 1 2 2 3 4 4 4 5 5 4 4 3
13 14 15 13 11 13 13 13 12 10 10 10 10 11 11 11 9 8 7 5 4 4 3 3 3 3 2 2 2 2 2 2 1 1 1 1 1 1 3 3 3 3 4 4 4 5 5 4 4
13 15 15 13 11 12 13 13 11 11 11 11 11 10 10 10 10 9 8 8 7 5 3 3 2 2 2 2 1 2 2 1 1 1 2 1 1 1 2 3 3 3 4 4 4 4 5 4 3
14 14 14 14 12 12 13 15 13 11 11 10 9 9 9 9 9 8 8 9 8 7 5 3 3 2 2 1 2 4 3 4 3 3 3 2 1 0 1 2 3 3 3 4 4 4 4 5 4
15 11 11 13 14 18 13 19 15 13 12 11 10 10 10 9 9 9 8 8 9 9 7 4 2 2 1 1 2 2 3 3 3 3 3 2 3 2 1 1 2 2 2 3 3 3 4 4 4
13 10 12 12 15 17 15 18 16 13 13 12 11 10 10 9 7 7 7 7 6 7 8 6 2 2 2 2 2 2 5 3 5 4 3 3 2 1 1 1 1 2 2 3 3 4 4 3 3
9 12 13 14 16 20 15 16 17 16 14 12 11 9 7 7 7 7 6 5 5 5 7 4 3 2 2 2 2 2 2 4 4 3 3 2 2 2 1 1 2 2 3 3 3 3 4 4 4
11 15 20 20 20 19 14 16 16 13 10 11 9 8 8 8 8 8 7 6 5 5 5 6 3 3 2 2 3 3 3 4 4 4 2 3 3 3 2 2 3 3 3 3 3 3 3 3 4
13 14 18 21 20 18 13 18 16 11 8 7 7 8 7 8 8 8 7 6 5 5 5 5 4 3 2 2 2 3 4 4 4 3 2 2 2 2 2 3 2 2 2 3 3 2 3 3 4
13 15 12 16 15 18 16 13 10 8 9 8 8 7 7 7 8 8 7 6 5 5 5 5 5 3 3 2 2 3 4 4 2 2 2 2 2 2 2 2 2 2 2 3 3 3 3 3 4
12 11 16 16 21 22 17 16 15 11 10 9 8 8 7 6 7 7 5 5 5 5 6 5 6 3 2 3 3 3 2 2 2 2 2 2 2 2 2 3 3 3 2 2 2 3 3 4 4
13 15 14 14 16 21 22 18 11 10 9 10 8 7 7 6 6 5 5 4 5 8 6 5 7 4 3 5 4 3 2 2 2 2 2 2 2 2 2 2 3 3 2 3 3 3 3 4 4
11 13 13 17 18 17 17 17 8 9 8 8 8 7 6 6 5 5 5 5 6 7 9 6 5 4 4 3 3 2 2 2 2 2 2 2 2 2 2 3 3 2 2 3 3 3 3 4 4